Location: Bouillancy
(49.1149°N, 2.9308°E)
Time: 23:20:43
(UTC+00:00)

CZ-2C R/B - Pass Details

Date: 30 September 2020
Orbit: 785 x 870 km, 98.2° (Epoch: 25 October)

Event Time Altitude Azimuth Distance (km) Brightness Sun altitude
Rises 18:53:56 0° 19° (NNE) 3,454 5.8 -14.8°
Reaches altitude 10° 18:56:29 10° 27° (NNE) 2,519 5.0 -15.2°
Maximum altitude 19:01:45 40° 96° (E) 1,262 3.1 -16.0°
Drops below altitude 10° 19:07:00 10° 166° (SSE) 2,510 4.9 -16.8°
Sets 19:09:31 0° 173° (S) 3,439 5.7 -17.2°
